Weather in Selendi

Turkey     38°44′40″N   28°52′08″E
temp.,
°C
wind,
m/s
gust,
m/s
humid.,
%
clouds,
%
prec.,
mm/h
press.,
hPa
HPBL,
m
11 may, tue
tue1100:00+13n12470 0.0 101512
03:00+11ene11490 0.0 101412
06:00+10e12470 0.0 101411
09:00+16e12320 0.0 1014440
12:00+23nne13190 0.0 10121438
15:00+26wnw22160 0.0 10101972
18:00+26wnw43190 0.0 10081675
21:00+17wnw33495 0.0 101025
12 may, wed
wed1200:00+14nw12575 0.0 101012
03:00+13wnw11610 0.0 101011
06:00+11sse01653 0.0 100910
09:00+17sse014639 0.0 1010372
12:00+23w23332 0.0 10081073
15:00+26w56210 0.0 10071816
18:00+24w7723100 0.0 10071229
21:00+18w223573 0.0 100814
13 may, thu
thu1300:00+17w1138100 0.0 100911
03:00+14sw11440 0.0 100811
06:00+13ese11450 0.0 100911
09:00+20se23330 0.0 1009515
12:00+25sw56232 0.0 10091762
15:00+27wsw46215 0.0 10082254
18:00+24w772361 0.0 1009870
21:00+17nw114692 0.0 101011
14 may, fri
fri1400:00+15wsw11526 0.0 101111
03:00+14se115774 0.0 101011
06:00+13se11600 0.0 101111
09:00+19sse12390 0.0 1012562
12:00+24wsw46260 0.0 10131744
15:00+25w67260 0.0 10132023
18:00+25w67300 0.0 10132006
21:00+18wnw47520 0.0 1015142
15 may, sat
sat1500:00+16w22610 0.0 101623
03:00+14wnw11690 0.0 101610
06:00+13e22704 0.0 101612
09:00+19ese1148100 0.0 1015443
12:00+24sw11285 0.0 10141203
15:00+27w45200 0.0 10121952
18:00
21:00+20w22341 0.0 101111